www.pogodaiklimat.ru

Погода и климат >> Архив погоды >> Мексика >> Sombrerete


ПОГОДА в Sombrerete

  • Прогноз погоды в Sombrerete
  • Монитор погоды в Sombrerete
  • Климат города

АРХИВ ПОГОДЫ в Sombrerete

Время (UTC), дата Ветер
(напр.,м/с)
 
Видим.   Явления Облачность Т
(С)
Тd
(С)
f
(%)
Тe
(С)
Тes
(С)
Комфортность P
(гПа)
Po
(гПа)
Тmin
(С)
Tmax
(С)
R
(мм)
R24
(мм)
S
(см)
12 17.04 штиль 0 16 км ясно +12.4 +5.0 61 +12 +12 1009.2 771.4 +11.9 +30.4
15 17.04 ЮЗ 1 16 км 5/0
[Ci fib]
+18.6 +7.9 50 +20 +27 1012.0 772.4
18 17.04 З 2 16 км 5/0
[Ci fib]
+26.8 +6.1 27 +26 +44 жарко 1009.5 771.7 +11.8 +26.8
21 17.04 З 2 16 км 8/1 1500 м
[Cu hum Cs]
+28.5 +0.2 16 +26 +38 жарко 1004.5 769.6
00 18.04 СЗ 1 16 км 1/1 1000 м
[Cu hum]
+25.5 -0.8 18 +24 +26 комфорт 1000.6 768.7 +11.8 +29.5
03 18.04 З 2 16 км ясно +18.4 +2.3 34 +19 +19 1001.5 770.1
06 18.04 ЮЗ 2 16 км ясно +15.4 +0.8 37 +15 +15 1004.6 771.2 +11.8 +29.5
12 18.04 штиль 0 16 км 4/0
[Ci fib]
+10.4 +2.1 56 +10 +10 1008.7 770.1 +9.7 +29.5
15 18.04 штиль 0 16 км 4/0
[Ci fib]
+19.4 +8.5 49 +20 +28 1011.6 771.5
18 18.04 С 1 16 км ясно +25.0 +7.5 33 +25 +49 комфорт 1010.2 771.5 +9.4 +25.0
21 18.04 З 1 16 км ясно +29.0 +0.6 16 +27 +45 жарко 1005.5 769.9
00 19.04 штиль 0 16 км ясно +27.0 -0.7 16 +25 +27 комфорт 1000.8 768.8 +9.4 +30.1
03 19.04 штиль 0 16 км ясно +20.2 -0.7 25 +20 +20 999.6 769.2
06 19.04 штиль 0 16 км ясно +17.0 +0.6 33 +17 +17 1002.7 770.7 +9.4 +30.1
12 19.04 штиль 0 16 км ясно +11.0 +3.3 59 +11 +11 1008.6 771.1 +10.4 +30.1
15 19.04 штиль 0 16 км ясно +20.8 +6.7 40 +22 +31 комфорт 1010.8 771.5
18 19.04 ЮЗ 2 16 км ясно +28.4 +5.3 23 +27 +47 жарко 1008.5 771.3 +10.4 +28.4
21 19.04 З 2 16 км 8/1 1500 м
[Cu hum Cs]
+30.8 -0.5 13 +28 +40 жарко 1003.6 769.6
00 20.04 Ю 1 16 км 6/1 1000 м
[Cu hum Cs]
+28.3 -5.9 10 +25 +27 комфорт 998.3 768.2 +10.4 +32.0
03 20.04 З 1 16 км ясно +21.2 +2.1 28 +21 +21 комфорт 998.2 769.2
06 20.04 штиль 0 16 км ясно +17.2 +4.8 44 +17 +17 1001.4 770.5 +10.4 +32.0
12 20.04 штиль 0 16 км ясно +13.6 +6.9 64 +13 +13 1006.3 769.9 +32.0
15 20.04 ЮЗ 2 16 км ясно +20.4 +6.2 40 +22 +29 комфорт 1009.0 770.9
18 20.04 З 4 16 км ясно +28.6 +2.5 19 +27 +40 жарко 1006.3 770.1 +12.6 +28.6
21 20.04 З 3 16 км ясно +31.0 -7.4 8 +27 +41 жарко 1001.5 768.7
00 21.04 СЗ 3 16 км ясно +28.0 -6.8 10 +25 +26 комфорт 997.4 767.8 +12.6 +32.2
12 21.04 штиль 0 16 км ясно +13.5 -1.3 36 +13 +13 1004.4 769.4 +13.1 +32.2
15 21.04 штиль 0 16 км ясно +21.4 +2.4 28 +21 +31 комфорт 1007.3 770.5
18 21.04 С 3 16 км 4/0
[Ci fib]
+26.0 +1.7 21 +25 +40 комфорт 1005.4 769.8 +12.0 +26.0
21 21.04 С 2 16 км 4/0 1500 м
[Ac lent]
+27.6 -0.7 16 +25 +36 комфорт 1001.3 768.0
00 22.04 С 1 16 км 8/0 1500 м
[As op]
+26.5 +7.3 30 +26 +27 жарко 997.8 767.3 +12.0 +30.8
12 22.04 штиль 0 16 км 4/0 2000 м
[Ac lent]
+12.8 +4.3 56 +13 +13 1005.8 769.5 +12.4 +30.8
15 22.04 штиль 0 16 км 5/0
[Cs]
+18.8 +3.9 37 +19 +27 1009.0 770.9
18 22.04 В 1 16 км 5/0
[Cs]
+25.3 +0.3 19 +24 +45 комфорт 1007.6 770.5 +12.2 +25.3
21 22.04 ЮЗ 1 16 км 9/4 1500 м
[Cu hum Cs]
+30.8 -0.4 13 +28 +37 жарко 1001.7 768.1
00 23.04 З 1 16 км 9/4 1000 м
[Cu hum Ac trans]
+27.6 +1.8 19 +26 +26 жарко 997.7 767.2 +12.2 +32.8
12 23.04 штиль 0 16 км 4/0
[Cs]
+14.2 +5.8 57 +14 +14 1005.5 770.3 +13.8 +32.8
15 23.04 штиль 0 16 км 6/0 2000 м
[As trans]
+19.6 +4.1 36 +20 +26 1009.0 771.6
18 23.04 штиль 0 16 км 9/4 1500 м
[Cu hum As trans]
+28.6 +3.0 19 +27 +35 жарко 1007.6 771.4 +13.0 +28.6
21 23.04 З 2 16 км 8/4 1500 м
[Cu hum Ci fib]
+31.2 -1.0 12 +28 +36 жарко 1002.3 769.3
00 24.04 СЗ 1 16 км 10/1 1000 м
[Cu hum As trans]
+26.0 +0.5 19 +24 +25 комфорт 999.0 768.6 +13.0 +33.0
03 24.04 штиль 0 16 км 6/3 1500 м
[Cu hum Ac trans]
+21.0 +3.3 31 +21 +21 комфорт 999.2 769.8
06 24.04 штиль 0 16 км 5/0 2000 м
[Ac und]
+18.4 +4.2 39 +19 +19 1001.6 770.5 +13.0 +33.0

 

Местоположение метеостанции Sombrerete (Мексика): широта 23.63 долгота -103.60 высота над уровнем моря 2351 м.

В архиве по умолчанию представлена погода в Sombrerete за последнюю неделю. Архивные данные за месяц целиком и за предыдущие месяцы, начиная с января 2011 года, Вы можете получить, выбрав интересующий диапазон дат из раскрывающегося списка и нажав кнопку "Ввод!".


*Определитесь, кто Вы:
робот инопланетянин человек

Внимание! Время в таблицах - всемирное. Для получения местного времени необходимо прибавить поправку, которая в Sombrerete равна -6 ч.

Смотрите также архив погоды в соседних городах и на ближайших метеорологических станциях:

Погода в Durango (Мексика) (112 км)
Погода в Huejucar (Мексика) (141 км)
Погода в Zacatecas (Мексика) (147 км)
Погода в Colotlan (Мексика) (174 км)
Погода в Torreon (Мексика) (212 км)
Погода в Aguascalientes (Мексика) (237 км)
Погода в Tepic (Мексика) (265 км)
Погода в Tepehuanes (Мексика) (287 км)
Погода в Mazatlan (Мексика) (290 км)
Погода в Lagos De Moreno (Мексика) (307 км)

Пояснения к столбцам:

Ветер - указаны скорость ветра в м/с - средняя за 10 мин, порывы в срок и между сроками (в фигурных скобках) и направление, откуда дует ветер: С - северный, СВ - северо-восточный, В - восточный, ЮВ - юго-восточный, Ю - южный, ЮЗ - юго-западный, З - западный, СЗ - северо-западный.
Видимость - горизонтальная дальность видимости в метрах или километрах. При видимости от 1 до 10 км при отсутствии осадков обычно наблюдается дымка, при ухудшении видимости до 1 км и менее - туман. В сухую погоду видимость может ухудшаться дымом, пылью или мглою.
Явления - указаны атмосферные явления, наблюдавшиеся в срок или в последний час перед сроком; фигурными скобками обозначены явления, наблюдавшиеся между сроками (за 1-3 часа до срока); квадратными скобками обозначены град или гололедные отложения с указанием их диаметра в мм.
Облачность - указаны через наклонную черту общая и нижняя облачность в баллах и высота нижней границы облаков в метрах; квадратными скобками обозначены формы облаков: Ci - перистые, Cs - перисто-слоистые, Cc - перисто-кучевые, Ac - высококучевые, As - высокослоистые, Sc - слоисто-кучевые, Ns - слоисто-дождевые, Cu - кучевые, Cb - кучево-дождевые. Подробнее классификацию облаков см. в Атласе облаков (PDF).
T - Температура воздуха - температура, измеренная на высоте 2 м над землей.
Td - Температура точки росы - температура, при понижении до которой содержащийся в воздухе водяной пар достигнет насыщения.
f - Относительная влажность воздуха - влажноcть воздуха, измеренная на высоте 2 м над землей.
Te - Эффективная температура - температура, которую ощущает одетый по сезону человек в тени. Характеристика душности погоды. При расчете учитывается влияние влажности воздуха и скорости ветра на теплоощущения человека.
Tes - Эффективная температура на солнце - температура, которую ощущает человек, с поправкой на солнечный нагрев. Характеристика знойности погоды. Зависит от высоты солнца над горизонтом, облачности и скорости ветра. Ночью, в пасмурную погоду, а также при ветре 12 м/с и более поправка равна нулю.
P - Атмосферное давление - приведенное к уровню моря атмосферное давление.
Po - Атмосферное давление - измеренное на уровне метеостанции атмосферное давление.
Tmin - Минимальная температура - минимум температуры воздуха на высоте 2 м над землей.
Tmax - Максимальная температура - максимум температуры воздуха на высоте 2 м над землей.
R - Количество осадков - Количество выпавших осадков за период времени, мм. При наведении курсора мыши на число - период времени, за который выпало указанное количество осадков.
R24 - Количество осадков - Количество выпавших осадков за 24 часа, мм.
S - Снежный покров - Высота снежного покрова, см. При наведении курсора мыши на число - состояние снежного покрова и степень покрытия местности в баллах.